Tracking 29510 objects as of 16-Sep-2024
HD Live streaming from Space Station
objects crossing your sky now

COSMOS 2100

Track COSMOS 2100 now!
10-day predictions
COSMOS 2100 is classified as:


NORAD ID: 20804
Int'l Code: 1990-083A
Perigee: 964.6 km
Apogee: 1,016.8 km
Inclination: 82.9 °
Period: 104.8 minutes
Semi major axis: 7361 km
RCS: 2.1376 m2 (large)
Launch date: September 14, 1990
Source: Commonwealth of Independent States (former USSR) (CIS)
Launch site: PLESETSK MISSILE AND SPACE COMPLEX (PKMTR)
Your satellite tracking list
Your tracking list is empty




NASA's NSSDC Master Catalog

Two Line Element Set (TLE):
1 20804U 90083A   24259.85145166  .00000167  00000-0  16045-3 0  9995
2 20804  82.9354 281.2650 0035453 259.8343 272.6394 13.74473240705409
Source of the keplerian elements: AFSPC